CELTEE 1

Last updated on Sun Sep 20 2026 00:03:42 GMT+0000 (Coordinated Universal Time)

1 41850U 16067C 26262.07619514 .00003658 00000+0 17115-3 0 9998 2 41850 98.0512 135.0306 0000682 74.6552 285.4757 15.20468990540144
UTC large
Height (km)
Speed (km/s)
/
Latitude / Longitude
Inclination (degrees)
Orbital Period (minutes)
Azimuth
Elevation
Range (km)
Doppler Factor

Next 0 passes for location: London (51.5072 / 0.1276)

No passes found over London.
CELTEE 1